Lid_Strength_Index
2 2 2 2 2 2 2 2 2 1 1 1 1 1 1 1 2 2 4 4 6 6
2 3 2 3 3 3 3 2 1 1 1 1 2 2 1 2 4 5 6 7 7 7
2 1 1 2 3 3 3 3 1 1 1 2 1 1 1 3 5 6 6 6 7 7
3 3 2 3 3 2 3 2 1 1 2 2 2 2 4 5 6 7 7 7 8 8
3 3 4 3 3 2 3 2 1 2 2 3 2 4 6 6 7 8 9 9 9 9
2 3 4 4 2 3 3 2 2 2 3 3 4 5 5 5 6 7 9 9 9 10
3 2 3 2 2 2 1 2 2 2 3 2 2 3 4 5 7 8 8 8 9 10
2 2 2 2 2 2 1 2 2 3 3 3 4 5 5 6 7 8 9 10 10 10
2 2 2 2 2 3 3 3 4 4 5 5 6 9 8 8 9 9 10 10 9 9
2 2 2 2 3 3 4 4 5 5 6 8 7 10 9 8 9 9 10 10 11 11
2 2 2 2 3 3 3 4 5 6 8 9 10 11 11 10 10 10 11 11 11 12
3 2 2 3 4 5 5 6 7 7 9 10 11 11 11 11 12 13 13 12 12 11
2 2 3 3 4 4 5 6 7 8 9 10 11 12 12 12 13 13 13 13 12 11
2 2 3 4 5 5 7 8 8 9 10 10 10 11 12 13 12 13 13 12 12 12